Location: ????????
(55.8351°N, 38.7040°E)
Time: 20:52:11
(UTC+00:00)

Cosmos 2333 Rocket - Pass Details

Date: 14 April 2024
Orbit: 839 x 862 km, 70.8° (Epoch: 23 May)

Event Time Altitude Azimuth Distance (km) Brightness Sun altitude
Exits shadow 00:04:58 26° 239° (WSW) 1,604 3.1 -16.8°
Maximum altitude 00:08:08 61° 311° (NW) 954 2.4 -16.5°
Drops below altitude 10° 00:13:45 10° 32° (NNE) 2,469 5.9 -15.9°
Sets 00:16:14 0° 36° (NE) 3,408 7.1 -15.7°
